Wind_Speed
16 16 17 18 19 20 21 21 21 21 22 23 24 27 29 31 30 32 31 24 26 26 27 23 21 18 18 21 22 22 29 35 32 29 27 21 9 12 20 7 14 15 15 13 9
16 17 18 19 21 22 22 22 23 23 23 23 23 24 26 30 32 33 28 28 27 28 30 26 23 20 23 23 24 29 34 35 27 27 26 23 17 12 16 13 11 11 24 15 7
19 20 20 20 21 23 24 25 25 26 26 25 25 24 25 27 29 32 29 28 27 30 30 28 23 21 24 23 26 30 40 29 27 28 28 23 19 13 16 17 18 19 23 16 13
18 19 20 21 22 23 23 24 25 27 28 28 27 26 26 26 19 23 24 22 26 30 32 31 29 27 28 29 27 32 33 33 30 27 28 23 22 17 19 15 18 22 23 17 14
20 21 21 22 24 25 25 24 25 25 26 27 28 29 30 31 26 24 31 32 26 24 32 33 34 31 33 28 26 33 30 31 30 30 31 23 27 22 20 21 16 16 25 20 16
25 24 24 25 26 26 27 27 26 26 27 27 27 29 31 35 24 26 28 32 30 31 25 31 37 31 28 31 31 27 30 30 31 31 29 27 26 30 21 18 17 17 25 20 18
28 28 27 27 28 28 29 29 29 29 29 30 30 31 34 29 28 30 31 29 25 31 33 26 32 25 30 31 28 30 30 32 34 31 32 29 28 33 27 23 24 19 28 24 21
30 30 29 28 28 28 29 30 31 32 32 33 34 34 37 31 31 31 30 31 29 28 32 25 20 30 28 26 29 27 33 35 37 30 34 30 39 31 31 29 23 25 27 23 26
30 30 30 31 32 32 30 32 32 34 33 30 34 32 25 20 11 15 18 26 30 30 31 25 24 31 30 30 31 37 34 41 32 32 29 35 38 32 31 34 29 28 31 28 26
31 32 32 33 34 36 34 36 33 34 34 36 26 26 8 12 22 26 29 20 22 23 27 31 30 33 35 36 41 37 36 35 36 32 32 36 35 33 30 35 36 32 32 29 29
33 34 33 34 34 36 37 35 37 35 29 22 15 18 25 28 31 29 32 21 20 27 36 38 36 45 48 43 38 33 33 33 33 30 30 37 37 33 32 32 39 37 32 31 30
34 34 34 33 34 35 36 35 35 31 27 15 15 19 15 27 31 27 19 31 23 36 35 34 49 49 36 37 37 36 37 38 32 28 33 35 33 32 34 36 35 42 34 35 30
35 35 32 33 31 31 32 32 28 21 9 10 16 18 26 34 40 32 25 30 31 34 40 45 56 39 38 39 40 41 40 39 35 29 30 27 28 30 32 35 37 34 35 39 36
34 36 35 32 32 30 27 26 23 20 3 15 18 22 35 43 28 18 16 24 33 35 37 45 41 39 38 42 42 42 41 36 32 29 24 23 20 29 31 35 38 40 34 40 37
34 34 34 37 33 30 28 22 19 13 4 19 25 25 30 32 28 30 21 13 28 27 30 43 40 40 43 42 41 44 35 36 33 31 31 25 27 29 32 35 39 39 36 34 41
33 35 35 28 28 27 23 15 15 7 5 19 30 31 33 36 28 37 23 1 15 18 27 34 34 38 41 30 37 34 34 30 33 32 20 31 29 30 29 36 35 38 41 40 30
32 34 34 35 31 26 17 17 6 9 22 25 33 27 28 36 28 33 32 32 23 13 11 28 30 35 35 38 28 35 33 17 17 19 18 35 32 31 21 12 35 38 41 40 45
30 29 32 30 28 23 20 6 12 16 18 25 27 22 23 35 26 27 26 28 24 23 14 12 14 30 31 41 32 34 35 19 24 16 20 34 29 37 20 18 21 31 26 39 35
29 28 28 27 24 21 13 21 9 18 21 26 22 21 24 28 25 24 24 25 27 28 18 17 8 12 29 28 29 34 35 41 30 29 21 28 31 13 19 26 28 33 32 31 36
28 25 27 28 22 17 15 13 11 16 19 18 22 20 24 28 25 23 25 21 26 26 11 9 15 9 13 19 27 33 32 34 37 21 19 25 35 21 21 19 26 32 35 37 36
26 12 26 21 21 18 21 14 11 17 18 17 18 20 20 25 21 18 21 11 28 27 18 15 8 16 11 1 5 19 36 31 35 33 14 14 23 30 41 36 32 33 35 38 39
26 15 23 23 22 16 17 17 14 15 15 17 13 17 21 21 20 17 19 18 25 25 26 20 10 13 29 10 21 14 12 19 27 30 32 31 11 16 34 29 28 34 38 35 40
24 14 22 22 19 20 14 13 13 17 16 17 14 17 20 19 16 19 19 16 23 25 25 20 12 14 18 25 23 15 16 16 16 14 25 17 9 18 25 24 20 25 27 34 32
24 20 20 16 15 15 16 14 17 15 14 19 14 16 22 20 17 21 16 20 22 18 15 17 15 9 8 14 19 27 26 15 17 12 18 28 29 26 23 22 20 19 21 24 29
22 15 17 15 19 15 14 14 18 20 18 16 16 20 24 25 22 20 21 24 21 8 12 16 17 16 16 18 22 23 26 21 17 16 13 14 21 28 26 25 22 21 20 22 25
23 19 15 10 10 15 14 15 19 21 20 17 22 24 22 22 22 25 24 23 25 17 17 19 15 20 25 17 15 22 22 23 21 17 17 14 5 19 23 24 22 19 19 20 21
23 18 16 13 12 13 14 20 20 19 18 23 24 24 23 23 23 26 26 26 28 26 25 21 18 15 19 10 17 17 9 12 16 13 13 11 8 29 21 17 17 17 16 18 19
Wind_Direction
352 346 340 336 333 330 328 326 323 319 312 301 290 282 277 273 269 267 261 265 260 258 254 252 251 247 239 223 218 228 235 242 239 246 248 256 195 235 230 249 239 185 207 235 248
349 345 340 336 331 326 323 320 317 316 314 312 307 296 285 278 273 267 271 258 253 251 252 250 253 248 242 237 220 220 231 236 237 242 253 258 240 234 220 214 194 213 241 232 243
354 349 343 337 331 326 324 322 318 314 311 308 306 304 299 289 281 277 267 259 251 248 248 244 241 244 238 233 226 225 233 235 243 242 248 268 234 217 215 220 235 218 235 227 236
355 351 345 340 335 330 326 323 318 313 309 307 305 301 296 294 282 281 279 268 251 242 242 239 230 223 230 231 230 235 237 239 242 243 249 259 233 223 227 223 235 237 244 223 223
357 354 349 345 339 334 331 328 322 315 309 306 303 299 294 287 290 281 270 265 259 253 242 239 232 223 228 232 234 236 240 240 244 249 245 256 231 242 237 218 194 219 249 218 215
356 354 349 345 341 337 332 329 324 319 314 308 303 297 292 289 295 285 275 269 260 252 246 235 232 224 233 233 235 239 242 244 242 243 247 246 234 235 233 229 205 215 241 221 212
353 350 347 344 340 337 332 328 324 320 316 311 307 300 291 297 284 277 275 271 259 250 243 241 231 222 230 235 238 241 246 244 242 237 238 239 238 222 222 230 222 209 227 230 215
352 346 344 342 339 336 332 329 325 322 318 315 309 302 295 293 283 278 268 266 253 246 241 230 238 226 228 237 235 238 239 243 236 234 233 230 237 227 222 221 222 210 235 226 211
351 346 345 343 339 338 337 331 328 321 325 319 312 306 309 307 316 285 269 266 246 241 232 229 217 225 225 227 231 228 234 231 238 230 231 224 232 230 224 219 218 213 226 224 213
351 348 347 343 341 338 338 332 333 326 337 327 318 321 310 255 241 247 248 255 254 230 234 223 216 222 220 217 221 220 225 232 234 230 226 225 230 228 225 222 218 217 217 232 220
351 349 347 344 342 339 336 335 336 343 340 345 347 325 325 320 305 295 278 265 253 230 226 217 213 217 216 215 222 227 230 230 237 233 225 220 228 228 225 225 219 215 209 226 230
350 350 345 346 343 340 340 345 346 341 354 31 1 337 310 310 307 291 297 267 247 235 222 219 219 219 220 222 224 227 237 240 235 234 228 220 222 227 225 228 225 218 208 209 222
348 348 348 345 347 344 347 347 347 349 3 44 351 340 334 310 311 305 287 273 240 237 222 218 222 218 219 223 223 226 230 240 244 228 236 219 228 223 228 228 227 222 213 212 210
349 349 347 350 347 349 353 348 350 348 14 358 347 343 334 330 325 320 266 280 237 236 227 226 229 223 222 227 223 230 226 233 243 242 211 205 236 232 231 225 223 225 212 213 212
348 352 352 350 352 357 354 356 3 1 17 342 338 332 342 355 339 325 308 282 225 238 228 231 227 224 224 224 223 228 227 228 236 240 249 207 212 234 223 223 221 219 220 214 220
347 349 353 356 355 356 357 6 9 11 0 342 341 339 346 356 357 336 27 159 214 261 244 235 229 227 229 229 225 227 230 229 228 237 250 231 226 227 236 217 220 218 217 210 228
348 350 348 360 359 1 10 23 358 38 332 336 343 344 353 355 3 359 8 24 28 345 245 232 231 227 225 231 227 224 225 221 221 217 233 229 233 240 223 250 212 210 215 202 211
346 350 2 358 2 4 18 48 50 349 345 339 342 343 358 359 357 359 7 10 11 13 326 334 253 228 222 225 218 225 215 216 217 209 226 229 224 232 221 213 153 178 181 209 223
348 345 3 0 5 20 32 51 31 353 343 346 350 351 351 360 357 0 6 7 12 10 6 356 276 229 233 221 224 224 219 224 244 228 230 221 223 141 181 207 194 183 190 177 186
353 357 356 6 8 27 42 51 17 359 353 356 0 355 353 353 358 5 7 355 359 7 7 328 298 272 238 209 221 233 227 226 230 237 240 230 223 178 174 163 188 194 191 191 194
350 2 356 360 26 22 40 24 1 359 359 358 355 350 351 347 355 8 6 359 0 356 3 341 302 262 296 328 295 249 242 239 233 237 251 260 235 220 198 193 200 201 205 199 202
356 358 359 358 7 46 19 11 359 356 360 359 357 3 352 347 342 359 360 360 353 344 353 356 332 295 255 249 330 288 305 295 227 230 242 251 18 148 159 159 180 199 211 215 210
8 3 347 13 26 18 9 360 360 357 355 358 354 356 353 349 344 336 333 345 348 343 349 357 349 323 275 271 282 321 338 346 332 249 264 251 148 142 152 156 167 193 208 219 215
360 356 1 0 16 9 351 352 350 347 352 349 338 342 343 342 339 329 336 335 340 331 350 1 345 330 305 307 312 311 311 346 337 310 267 256 145 157 160 156 164 173 179 186 200
359 4 347 340 348 357 340 342 339 337 338 341 332 336 335 332 330 329 324 319 330 312 339 335 319 310 308 308 309 303 300 299 314 310 302 300 191 168 166 157 154 157 166 173 184
356 355 355 359 1 336 335 334 329 327 332 329 325 323 325 321 322 317 316 313 308 305 300 313 302 308 302 307 295 295 289 284 285 294 305 313 189 161 166 160 153 148 149 160 170
347 349 350 351 337 329 323 320 321 321 320 315 315 314 313 311 309 303 300 294 292 290 290 289 290 291 300 319 316 300 291 282 282 272 322 5 240 151 141 146 146 146 144 156 162
Height
3114 3112 3109 3107 3104 3101 3099 3096 3094 3091 3089 3087 3086 3085 3084 3083 3083 3082 3083 3088 3088 3088 3088 3090 3091 3094 3094 3096 3101 3106 3105 3100 3102 3104 3104 3103 3102 3104 3109 3111 3106 3106 3108 3111 3113
3113 3110 3107 3104 3101 3098 3096 3093 3091 3088 3086 3084 3082 3080 3078 3077 3076 3075 3080 3079 3081 3082 3083 3086 3087 3089 3089 3091 3094 3098 3096 3094 3100 3101 3101 3101 3100 3103 3105 3109 3108 3103 3106 3111 3112
3110 3107 3104 3101 3098 3094 3092 3089 3086 3083 3081 3079 3077 3075 3073 3071 3071 3068 3071 3072 3074 3074 3077 3080 3083 3084 3084 3087 3088 3091 3087 3093 3095 3096 3096 3099 3099 3099 3101 3106 3105 3104 3104 3108 3111
3107 3104 3101 3097 3094 3091 3088 3085 3082 3079 3076 3073 3071 3069 3067 3067 3069 3063 3064 3065 3067 3067 3069 3072 3076 3079 3080 3081 3085 3086 3086 3089 3090 3092 3093 3095 3096 3095 3097 3104 3106 3101 3103 3106 3108
3104 3101 3097 3094 3090 3086 3083 3080 3077 3074 3071 3068 3066 3063 3061 3059 3062 3061 3059 3059 3061 3061 3062 3065 3068 3072 3074 3078 3082 3080 3082 3084 3086 3087 3086 3089 3091 3094 3093 3099 3102 3099 3098 3103 3106
3101 3097 3094 3090 3087 3083 3078 3075 3072 3069 3065 3062 3060 3057 3055 3052 3055 3053 3051 3051 3055 3056 3057 3058 3060 3066 3070 3073 3074 3077 3078 3079 3080 3082 3083 3084 3087 3091 3093 3093 3098 3099 3095 3100 3104
3098 3094 3090 3087 3083 3079 3073 3069 3066 3063 3059 3056 3053 3050 3047 3050 3048 3045 3044 3045 3047 3047 3050 3053 3056 3062 3065 3066 3070 3072 3072 3072 3072 3075 3077 3080 3080 3082 3089 3089 3094 3096 3093 3096 3101
3096 3091 3087 3083 3079 3075 3070 3065 3060 3056 3053 3049 3045 3041 3037 3039 3039 3038 3037 3036 3039 3040 3043 3048 3052 3054 3058 3063 3063 3065 3066 3063 3061 3068 3070 3075 3071 3078 3084 3087 3087 3092 3089 3092 3096
3095 3089 3084 3079 3074 3069 3065 3060 3056 3049 3046 3042 3037 3032 3031 3029 3031 3029 3028 3028 3030 3032 3035 3041 3047 3048 3054 3054 3056 3056 3052 3053 3057 3060 3063 3066 3065 3072 3077 3079 3082 3085 3085 3087 3091
3093 3087 3081 3075 3069 3063 3059 3053 3048 3042 3037 3030 3028 3029 3026 3023 3020 3016 3016 3020 3020 3025 3029 3033 3037 3039 3041 3043 3035 3041 3046 3047 3047 3051 3055 3058 3059 3065 3068 3072 3076 3078 3081 3081 3085
3091 3084 3078 3072 3066 3059 3053 3047 3043 3034 3035 3028 3030 3028 3023 3021 3018 3015 3014 3013 3015 3016 3016 3019 3027 3020 3022 3029 3037 3040 3041 3042 3043 3045 3048 3048 3054 3058 3062 3064 3069 3072 3073 3076 3079
3088 3082 3075 3070 3062 3056 3049 3042 3036 3035 3028 3028 3030 3028 3024 3014 3007 3008 3009 3007 3006 3002 3008 3018 3008 3010 3023 3029 3031 3035 3034 3033 3036 3038 3040 3041 3045 3051 3055 3055 3058 3065 3067 3070 3074
3085 3080 3074 3066 3061 3055 3046 3041 3036 3033 3031 3030 3030 3025 3019 3010 3001 2998 2999 2999 2996 2996 2999 3000 2992 3013 3017 3020 3024 3025 3028 3028 3029 3031 3033 3035 3039 3043 3047 3051 3053 3057 3060 3061 3066
3084 3076 3070 3065 3060 3051 3046 3040 3035 3031 3029 3032 3028 3025 3015 3002 2998 2991 2987 2987 2987 2988 2992 2992 3000 3006 3009 3011 3016 3017 3021 3026 3025 3025 3024 3031 3035 3038 3040 3042 3046 3048 3054 3053 3059
3081 3076 3068 3058 3054 3049 3044 3038 3035 3031 3030 3035 3027 3024 3017 3009 2998 2987 2979 2973 2979 2982 2989 2984 2992 2997 2999 3001 3010 3008 3018 3020 3021 3022 3022 3023 3030 3029 3032 3034 3037 3042 3047 3050 3053
3079 3073 3067 3064 3055 3049 3043 3040 3036 3035 3032 3034 3030 3021 3015 3006 2998 2991 2974 2971 2979 2974 2978 2982 2988 2992 2993 2999 3004 3009 3013 3014 3017 3019 3016 3015 3020 3020 3022 3024 3029 3035 3041 3047 3040
3077 3070 3064 3056 3052 3047 3043 3038 3042 3043 3042 3034 3026 3023 3017 3008 3001 2993 2987 2982 2984 2983 2978 2977 2980 2985 2990 2994 2998 3002 3005 3006 3008 3010 3004 3013 3016 3015 3016 3016 3019 3026 3032 3037 3043
3076 3071 3063 3057 3053 3047 3042 3044 3044 3048 3044 3039 3031 3025 3020 3012 3007 3001 2994 2992 2988 2985 2982 2979 2977 2979 2983 2986 2992 2994 2998 2997 2997 2998 2998 3011 3008 3006 3011 3013 3013 3018 3022 3031 3036
3073 3069 3064 3059 3053 3048 3047 3045 3051 3048 3045 3038 3032 3028 3024 3020 3015 3006 3003 2998 2994 2989 2992 2987 2977 2972 2978 2984 2990 2992 2995 2997 2999 3002 3000 3000 3004 3004 3004 3007 3011 3013 3020 3025 3027
3072 3065 3062 3057 3054 3049 3048 3050 3051 3049 3044 3040 3036 3032 3027 3023 3019 3014 3009 3005 3002 2999 2997 2997 2986 2975 2973 2980 2986 2989 2992 2997 2995 2995 2992 2990 2989 2992 2999 3004 3005 3011 3016 3020 3025
3070 3068 3062 3060 3054 3051 3050 3053 3050 3049 3045 3042 3038 3035 3032 3027 3023 3020 3018 3013 3008 3002 2999 2996 2994 2977 2977 2977 2984 2989 2988 2988 2991 2991 2989 2987 2984 2984 2985 2992 3000 3005 3010 3015 3020
3068 3066 3062 3057 3056 3052 3054 3053 3052 3048 3046 3043 3041 3037 3034 3029 3026 3023 3021 3018 3014 3009 3001 2998 2993 2987 2981 2979 2981 2981 2984 2982 2980 2985 2986 2986 2994 2980 2988 2992 2993 2997 3003 3009 3016
3067 3066 3061 3057 3054 3055 3055 3055 3052 3048 3046 3042 3041 3039 3036 3032 3029 3025 3023 3019 3016 3011 3006 3001 2999 2991 2978 2984 2981 2980 2979 2981 2977 2979 2981 2982 2993 2991 2989 2991 2994 2996 3001 3004 3009
3067 3064 3061 3058 3058 3058 3055 3054 3052 3050 3046 3043 3041 3039 3035 3032 3029 3026 3022 3020 3016 3014 3010 3007 3007 3006 3006 3001 2998 2988 2987 2986 2989 2986 2982 2982 2985 2986 2990 2990 2993 2996 3000 3001 3004
3066 3065 3061 3059 3057 3058 3056 3054 3050 3048 3046 3043 3040 3038 3035 3030 3027 3024 3021 3018 3017 3014 3013 3011 3008 3006 3003 3000 2995 2991 2988 2988 2990 2991 2989 2986 2982 2984 2988 2990 2994 2995 2997 2998 3000
3065 3063 3062 3058 3058 3058 3056 3053 3049 3046 3045 3041 3039 3036 3033 3030 3027 3022 3020 3018 3014 3012 3011 3011 3007 3005 3000 2998 2997 2992 2988 2986 2988 2990 2988 2990 2987 2985 2990 2991 2994 2996 2997 2997 2999
3064 3063 3059 3057 3058 3057 3055 3050 3048 3045 3044 3041 3037 3033 3030 3027 3022 3019 3016 3013 3010 3008 3007 3008 3006 3004 3000 2997 2993 2990 2986 2985 2985 2988 2991 2989 2988 2983 2988 2993 2996 2998 2998 2997 2998